| time (UTC) | temp F | wind direction | speed MPH | gust MPH | rain 1hr in | rain 24hr in | rain mn in | humidity % | barometer mb |
| 20260906011502 | 67 | 84 | 0.0 | 2.0 | 0.00 | 0.03 | 0.03 | 57 | 1015.8 |
| 20260906010006 | 67 | 92 | 1.0 | 3.0 | 0.00 | 0.03 | 0.03 | 56 | 1015.8 |
| 20260906004502 | 67 | 158 | 0.0 | 2.0 | 0.00 | 0.03 | 0.03 | 58 | 1015.8 |
| 20260906003003 | 67 | 166 | 1.0 | 4.0 | 0.00 | 0.03 | 0.03 | 57 | 1015.7 |
| 20260906001503 | 66 | 27 | 0.0 | 2.0 | 0.00 | 0.03 | 0.03 | 57 | 1015.7 |
| 20260906000007 | 66 | 141 | 0.0 | 2.0 | 0.00 | 0.03 | 0.03 | 58 | 1015.6 |
| 20260905234502 | 66 | 47 | 1.0 | 2.0 | 0.00 | 0.03 | 0.03 | 59 | 1015.8 |
| 20260905231502 | 66 | 154 | 1.0 | 4.0 | 0.00 | 0.03 | 0.03 | 59 | 1015.8 |
| 20260905230004 | 65 | 192 | 1.0 | 3.0 | 0.00 | 0.03 | 0.03 | 60 | 1015.9 |
| 20260905224503 | 65 | 166 | 0.0 | 0.0 | 0.00 | 0.03 | 0.03 | 64 | 1016.0 |
| 20260905223005 | 65 | 139 | 0.0 | 3.0 | 0.00 | 0.03 | 0.03 | 67 | 1016.1 |
| 20260905221502 | 64 | 141 | 0.0 | 2.0 | 0.00 | 0.03 | 0.03 | 63 | 1016.4 |
| 20260905220009 | 64 | 104 | 0.0 | 3.0 | 0.00 | 0.03 | 0.03 | 64 | 1016.5 |
| 20260905214503 | 63 | 93 | 0.0 | 2.0 | 0.00 | 0.03 | 0.03 | 73 | 1016.6 |
| 20260905213003 | 63 | 90 | 0.0 | 4.0 | 0.00 | 0.03 | 0.03 | 73 | 1016.8 |
| 20260905211504 | 61 | 84 | 0.0 | 3.0 | 0.00 | 0.03 | 0.03 | 76 | 1016.9 |
| 20260905204502 | 59 | 121 | 0.0 | 2.0 | 0.01 | 0.03 | 0.03 | 80 | 1017.2 |
| 20260905203003 | 58 | 186 | 0.0 | 2.0 | 0.01 | 0.03 | 0.03 | 81 | 1017.3 |
| 20260905201503 | 58 | 186 | 0.0 | 2.0 | 0.02 | 0.03 | 0.03 | 86 | 1017.4 |
| 20260905200006 | 57 | 193 | 0.0 | 2.0 | 0.03 | 0.03 | 0.03 | 88 | 1017.5 |
| 20260905194503 | 57 | 193 | 0.0 | 2.0 | 0.02 | 0.03 | 0.02 | 87 | 1017.6 |
| 20260905193001 | 57 | 183 | 0.0 | 2.0 | 0.02 | 0.03 | 0.02 | 88 | 1017.6 |
| 20260905191503 | 57 | 183 | 0.0 | 2.0 | 0.01 | 0.02 | 0.01 | 84 | 1017.8 |
| 20260905190003 | 58 | 183 | 0.0 | 2.0 | 0.00 | 0.01 | 0.00 | 83 | 1017.7 |
| 20260905184501 | 58 | 183 | 0.0 | 0.0 | 0.00 | 0.01 | 0.00 | 81 | 1017.7 |
| 20260905183001 | 57 | 183 | 0.0 | 0.0 | 0.00 | 0.01 | 0.00 | 79 | 1017.8 |
| 20260905181502 | 57 | 183 | 0.0 | 0.0 | 0.00 | 0.01 | 0.00 | 80 | 1017.9 |
| 20260905174502 | 56 | 183 | 0.0 | 0.0 | 0.00 | 0.01 | 0.00 | 83 | 1017.9 |
| 20260905173001 | 55 | 183 | 0.0 | 2.0 | 0.00 | 0.01 | 0.00 | 83 | 1017.9 |
| 20260905171502 | 55 | 155 | 0.0 | 0.0 | 0.00 | 0.01 | 0.00 | 85 | 1017.8 |
| 20260905164502 | 53 | 155 | 0.0 | 0.0 | 0.00 | 0.01 | 0.00 | 86 | 1017.6 |
| 20260905163002 | 53 | 155 | 0.0 | 0.0 | 0.00 | 0.01 | 0.00 | 86 | 1017.7 |
| 20260905160000 | 53 | 155 | 0.0 | 2.0 | 0.00 | 0.01 | 0.00 | 84 | 1017.6 |
| 20260905151500 | 52 | 109 | 0.0 | 0.0 | 0.00 | 0.01 | 0.00 | 91 | 1017.3 |
| 20260905150005 | 51 | 109 | 0.0 | 0.0 | 0.00 | 0.01 | 0.00 | 91 | 1017.3 |
| 20260905141502 | 50 | 109 | 0.0 | 0.0 | 0.00 | 0.01 | 0.00 | 91 | 1017.2 |
| 20260905140005 | 50 | 109 | 0.0 | 0.0 | 0.00 | 0.01 | 0.00 | 90 | 1017.1 |
| 20260905134501 | 50 | 109 | 0.0 | 0.0 | 0.00 | 0.01 | 0.00 | 91 | 1016.8 |
| 20260905133001 | 50 | 109 | 0.0 | 0.0 | 0.00 | 0.01 | 0.00 | 91 | 1016.7 |
| 20260905131501 | 50 | 109 | 0.0 | 0.0 | 0.00 | 0.01 | 0.00 | 91 | 1016.6 |
| 20260905124500 | 50 | 109 | 0.0 | 0.0 | 0.00 | 0.01 | 0.00 | 91 | 1016.6 |
| 20260905123001 | 50 | 109 | 0.0 | 0.0 | 0.00 | 0.01 | 0.00 | 91 | 1016.6 |
| 20260905121501 | 50 | 109 | 0.0 | 0.0 | 0.00 | 0.01 | 0.00 | 91 | 1016.6 |
| 20260905120001 | 49 | 109 | 0.0 | 0.0 | 0.00 | 0.02 | 0.00 | 91 | 1016.7 |
| 20260905114501 | 49 | 109 | 0.0 | 0.0 | 0.00 | 0.02 | 0.00 | 91 | 1016.8 |
| 20260905113000 | 49 | 109 | 0.0 | 0.0 | 0.00 | 0.02 | 0.00 | 91 | 1016.5 |
| 20260905111501 | 49 | 109 | 0.0 | 0.0 | 0.00 | 0.02 | 0.00 | 91 | 1016.4 |
| 20260905110003 | 49 | 109 | 0.0 | 0.0 | 0.00 | 0.02 | 0.00 | 91 | 1016.3 |
| 20260905103001 | 50 | 109 | 0.0 | 0.0 | 0.00 | 0.05 | 0.00 | 91 | 1016.2 |
| 20260905101501 | 50 | 109 | 0.0 | 0.0 | 0.00 | 0.05 | 0.00 | 91 | 1016.1 |
| 20260905100006 | 50 | 109 | 0.0 | 0.0 | 0.00 | 0.11 | 0.00 | 91 | 1016.1 |
| 20260905094500 | 50 | 109 | 0.0 | 0.0 | 0.00 | 0.11 | 0.00 | 91 | 1016.1 |
| 20260905093003 | 50 | 109 | 0.0 | 0.0 | 0.00 | 0.11 | 0.00 | 91 | 1016.2 |
| 20260905091503 | 50 | 109 | 0.0 | 0.0 | 0.00 | 0.11 | 0.00 | 90 | 1016.1 |
| 20260905090001 | 51 | 109 | 0.0 | 0.0 | 0.00 | 0.13 | 0.00 | 90 | 1016.1 |
| 20260905084501 | 51 | 109 | 0.0 | 0.0 | 0.00 | 0.13 | 0.00 | 90 | 1016.0 |
| 20260905083000 | 51 | 109 | 0.0 | 0.0 | 0.00 | 0.13 | 0.00 | 90 | 1016.0 |
| 20260905081500 | 51 | 109 | 0.0 | 0.0 | 0.00 | 0.13 | 0.00 | 90 | 1016.1 |
| 20260905080006 | 52 | 109 | 0.0 | 0.0 | 0.00 | 0.13 | 0.00 | 90 | 1016.0 |
| 20260905074503 | 52 | 109 | 0.0 | 0.0 | 0.00 | 0.15 | 0.00 | 89 | 1015.9 |
| 20260905073005 | 53 | 109 | 0.0 | 0.0 | 0.00 | 0.15 | 0.00 | 89 | 1015.9 |
| 20260905071504 | 53 | 109 | 0.0 | 0.0 | 0.00 | 0.15 | 0.00 | 88 | 1015.7 |
| 20260905064505 | 53 | 109 | 0.0 | 0.0 | 0.00 | 0.17 | 0.15 | 89 | 1015.4 |
| 20260905063006 | 53 | 109 | 0.0 | 0.0 | 0.00 | 0.17 | 0.15 | 89 | 1015.2 |
| 20260905060005 | 54 | 109 | 0.0 | 0.0 | 0.00 | 0.17 | 0.15 | 89 | 1015.1 |
| 20260905054502 | 54 | 109 | 0.0 | 0.0 | 0.00 | 0.18 | 0.15 | 88 | 1015.1 |
| 20260905053002 | 55 | 109 | 0.0 | 0.0 | 0.00 | 0.18 | 0.15 | 87 | 1015.2 |
| 20260905051502 | 55 | 109 | 0.0 | 0.0 | 0.00 | 0.18 | 0.15 | 86 | 1015.1 |
| 20260905050005 | 56 | 109 | 0.0 | 0.0 | 0.00 | 0.18 | 0.15 | 85 | 1015.2 |
| 20260905044503 | 56 | 109 | 0.0 | 0.0 | 0.00 | 0.18 | 0.15 | 84 | 1015.2 |
| 20260905043003 | 56 | 109 | 0.0 | 0.0 | 0.00 | 0.18 | 0.15 | 83 | 1015.2 |
| 20260905040005 | 57 | 109 | 0.0 | 0.0 | 0.00 | 0.18 | 0.15 | 82 | 1015.1 |
| 20260905034502 | 57 | 109 | 0.0 | 0.0 | 0.00 | 0.18 | 0.15 | 81 | 1015.1 |
| 20260905033001 | 58 | 109 | 0.0 | 0.0 | 0.00 | 0.18 | 0.15 | 79 | 1014.9 |
| 20260905031502 | 58 | 109 | 0.0 | 0.0 | 0.00 | 0.18 | 0.15 | 77 | 1014.8 |
| 20260905030006 | 59 | 109 | 0.0 | 0.0 | 0.00 | 0.18 | 0.15 | 76 | 1014.6 |
| 20260905023003 | 60 | 109 | 0.0 | 0.0 | 0.00 | 0.21 | 0.15 | 75 | 1014.6 |
| 20260905021503 | 60 | 109 | 0.0 | 0.0 | 0.00 | 0.21 | 0.15 | 73 | 1014.7 |
| 20260905020003 | 61 | 109 | 0.0 | 0.0 | 0.00 | 0.76 | 0.15 | 72 | 1014.5 |
| 20260905014501 | 61 | 109 | 0.0 | 0.0 | 0.00 | 0.76 | 0.15 | 72 | 1014.3 |
| 20260905013002 | 61 | 124 | 0.0 | 0.0 | 0.00 | 0.76 | 0.15 | 72 | 1014.3 |